Location: Caltech
(34.1382°N, 118.1253°W)
Time: 16:47:40
(UTC-07:00)

Saudisat 1A - Visible Passes

Search period start: 29 March 2015 00:00
Search period end: 08 April 2015 00:00
Orbit: 584 x 616 km, 64.6° (Epoch: 29 March)

Date Brightness Start Highest point End Pass type
(mag) Time Alt. Az. Time Alt. Az. Time Alt. Az.
29 Mar 10.2 21:23:40 10° N 21:25:08 17° NNE 21:25:08 17° NNE visible
30 Mar 9.9 21:34:24 10° NNW 21:36:23 24° N 21:36:23 24° N visible
31 Mar 9.8 21:45:27 10° NNW 21:47:41 29° NNW 21:47:41 29° NNW visible
01 Apr 9.7 20:18:23 10° N 20:21:18 17° NE 20:22:17 16° ENE visible
01 Apr 10.0 21:56:49 10° NW 21:59:03 27° WNW 21:59:03 27° WNW visible
02 Apr 9.0 20:28:50 10° N 20:32:46 30° NE 20:33:43 28° ENE visible
02 Apr 10.5 22:08:36 10° WNW 22:10:29 19° W 22:10:29 19° W visible
03 Apr 8.1 20:39:40 10° NNW 20:44:05 57° ENE 20:45:14 43° ESE visible
03 Apr 11.0 22:21:37 10° W 22:22:00 11° W 22:22:00 11° W visible
04 Apr 8.2 20:50:49 10° NNW 20:55:17 71° WSW 20:56:51 39° S visible
05 Apr 9.4 21:02:17 10° NW 21:06:23 35° WSW 21:08:34 22° SSW visible
06 Apr 10.5 21:14:19 10° WNW 21:17:25 18° WSW 21:20:20 10° SSW visible
07 Apr 8.0 19:44:53 10° NNW 19:49:22 75° ENE 19:53:50 10° SSE visible
